Location: ???????
(55.3754°N, 39.3545°E)
Time: 21:37:14
(UTC+00:00)

Lacrosse 5 rocket - Pass Details

Date: 14 April 2026
Orbit: 390 x 473 km, 57.0° (Epoch: 11 May)

Event Time Altitude Azimuth Distance (km) Brightness Sun altitude
Rises 17:56:05 0° 240° (WSW) 2,292 4.8 -12.1°
Reaches altitude 10° 17:58:09 10° 237° (WSW) 1,431 3.7 -12.4°
Maximum altitude 18:01:18 64° 155° (SSE) 438 0.5 -12.7°
Enters shadow 18:04:16 11° 74° (ENE) 1,361 3.0 -13.0°
